Regional Weather Roundup
Issued by NWS

Home | Current Version | Previous Version | Graphics & Text | Print | Product List | Glossary On
Versions: 1 2 3 4 5 6 7 8 9 10 11 12 13 14 15 16 17 18 19 20 21 22 23 24 25 26 27 28 29 30 31 32 33 34 35 36 37 38 39 40 41 42 43 44 45 46 47 48 49 50
000
ASUS43 KTOP 220259
RWRKS

WEATHER ROUNDUP FOR KANSAS
NATIONAL WEATHER SERVICE GOODLAND KS
900 PM CST SUN JAN 21 2018

NOTE:  "FAIR" INDICATES FEW OR NO CLOUDS BELOW 12,000 FEET WITH NO
SIGNIFICANT WEATHER AND/OR OBSTRUCTIONS TO VISIBILITY.

KSZ001>006-013>018-027>032-041>047-220400-
NORTHWEST KANSAS

CITY           SKY/WX    TMP DP  RH WIND       PRES   REMARKS
GOODLAND       FOG       27  26  96 N30G40    29.71S VSB 1/2 WCI  11
HAYS           CLOUDY    35  34  96 NE8       29.58F FOG
HILL CITY      CLOUDY    33  33 100 N17       29.58F WCI  22
RUSSELL        CLOUDY    38  38 100 N5        29.57S FOG
$$

KSZ061>065-074>080-084>089-220400-
SOUTHWEST KANSAS

CITY           SKY/WX    TMP DP  RH WIND       PRES   REMARKS
DODGE CITY     CLOUDY    35  31  85 W16G25    29.60S WCI  25
GARDEN CITY    LGT SNOW  31  29  92 NW23G35   29.63S FOG     WCI  18
GREAT BEND     MOCLDY    30  29  96 W3        29.59F FOG
LIBERAL        CLOUDY    33  27  78 NW35G43   29.72R WCI  18
$$

KSZ066>073-081>083-090>101-220400-
SOUTHEAST KANSAS

CITY           SKY/WX    TMP DP  RH WIND       PRES   REMARKS
CHANUTE        CLOUDY    59  56  89 S12       29.58F
COFFEYVILLE    CLOUDY    60  55  83 S12       29.58F
HUTCHINSON     CLOUDY    41  37  86 VRB6      29.56F
MEDICINE LODGE   N/A     42  31  64 W6        29.63S
NEWTON         CLOUDY    41  36  82 NW10      29.59F
PARSONS        CLOUDY    60  56  86 S8        29.58F
WICHITA INTL   CLOUDY    45  37  73 N16       29.59R
WICHITA JABRA  CLOUDY    44  37  76 NW10      29.60R
WICHITA MCCONL CLOUDY    46  35  64 N13       29.58R
WINFIELD       CLOUDY    51  34  52 W8        29.59S
$$

KSZ007>012-019>026-033>040-048>060-102>105-220400-
NORTHEAST KANSAS

CITY           SKY/WX    TMP DP  RH WIND       PRES   REMARKS
CONCORDIA      CLOUDY    39  38  96 NE8       29.58F FOG
EMPORIA        CLOUDY    44  36  73 NW9       29.57F
LAWRENCE       MOCLDY    47  45  93 CALM      29.56F
MANHATTAN      MOCLDY    39  34  82 CALM      29.61F
OLATHE IND     CLEAR     58  54  86 SE14      29.57F
OLATHE EXE     PTCLDY    55  52  89 S12       29.59F
SALINA         CLOUDY    40  38  93 SW5       29.61F
TOPEKA BILLARD MOCLDY    54  50  86 W12       29.57F
TOPEKA FORBES  MOCLDY    53  49  86 W14       29.57F
$$




USA.gov is the U.S. government's official web portal to all federal, state and local government web resources and services.